sat.trackr.live / text

‹ back to catalog

STARLINK-2613

NORAD 48353 · 2021-038A

PAYLOAD ACTIVE UNKNOWN

§ Identity

Operator
Country
US
Launch date
2021-05-04
Launch site
AFETR
Launch vehicle
Mass (kg)
RCS (m²)

Purposes: comms

External: N2YO · Heavens-Above · Gunter

§ Orbital elements

Epoch: 2026-09-19T11:20:50.894592Z

Period
94.01 min
Inclination
53.1620°
Eccentricity
0.0001388
Mean motion
15.31698024 rev/d
Perigee alt
469.8 km
Apogee alt
471.7 km
Semi-major
6,848.9 km
B*
1.5001e-5
RAAN
176.2997°
Arg perigee
74.8163°
Mean anomaly
285.2992°
Rev number
29,677

§ Raw data

STARLINK-26131 48353U 21038A   26262.47281128  .00000100  00000+0  15001-4 0  99992 48353  53.1620 176.2997 0001388  74.8163 285.2992 15.31698024296779

JSON: /api/v1/satellites/48353 · /tle

For live sub-satellite position, see the globe view (requires WebGL).

§ Visibility from observer

Set your observer location to see the next 7 days of passes ≥ 10°. The values pass through the URL so the page stays shareable.

No JS? Fill the form by hand. The geolocation button needs JavaScript.